Regional Weather Roundup
Issued by NWS

Home | Current Version | Previous Version | Graphics & Text | Print | Product List | Glossary On
Versions: 1 2 3 4 5 6 7 8 9 10 11 12 13 14 15 16 17 18 19 20 21 22 23 24 25 26 27 28 29 30 31 32 33 34 35 36 37 38 39 40 41 42 43 44 45 46 47 48 49 50
000
ASUS43 KMPX 201801
RWRMN
WEATHER ROUNDUP FOR MINNESOTA
NATIONAL WEATHER SERVICE TWIN CITIES/CHANHASSEN MN
100 PM CDT MON OCT 20 2014


NOTE: "FAIR" INDICATES FEW OR NO CLOUDS BELOW 12,000 FEET WITH NO
SIGNIFICANT WEATHER AND/OR OBSTRUCTIONS TO VISIBILITY. N/A MEANS
CURRENT SKY AND/OR WEATHER CONDITIONS ARE NOT AVAILABLE.

MNZ060>063-068>070-201900-
   Twin Cities Metro

CITY           SKY/WX    TMP DP  RH WIND       PRES   REMARKS
TWIN CITIES    MOSUNNY   61  43  51 NW9       29.99F
6HR MIN TEMP:  47; 6HR MAX TEMP:  61;

ST PAUL        SUNNY     61  44  53 NW15      29.99F
CRYSTAL        SUNNY     63  42  46 N14       29.98F
BLAINE         MOSUNNY   63  45  51 MISG        N/A
LAKEVILLE      SUNNY     61  43  51 NW9G17    29.98F
EDEN PRAIRIE   SUNNY     61  44  53 NW12G20   29.98F
6HR MIN TEMP:  47; 6HR MAX TEMP:  61;

SOUTH ST PAUL  SUNNY     61  42  49 N12G17    29.97F
LAKE ELMO      FAIR      61  45  55 NW10      29.99F
$$
MNZ001>005-007-008-013>017-022>024-027-028-201900-
   Northwest Minnesota

CITY           SKY/WX    TMP DP  RH WIND       PRES   REMARKS
BEMIDJI        MOSUNNY   50  39  65 N7        30.04F
HALLOCK        MOSUNNY   50  43  76 N3        30.08S
ROSEAU         CLOUDY    46  39  76 N5        30.08S
WARROAD        CLOUDY    46  39  76 CALM      30.08S
THIEF RVR FALL CLOUDY    46  39  76 CALM      30.07F
CROOKSTON      SUNNY     54  43  66 N5        30.07F
FOSSTON        MOSUNNY   54  39  58 N12       30.06F
DETROIT LAKES  SUNNY     54  41  62 N8        30.06F
MOORHEAD       SUNNY     57  45  62 N6        30.07F
PARK RAPIDS    SUNNY     54  38  54 N14       30.03F
MAHNOMEN       FAIR      53  41  64 N7        30.06S
$$
MNZ006-009>011-018-025>026-201900-
   North Central Minnesota

CITY           SKY/WX    TMP DP  RH WIND       PRES   REMARKS
BAUDETTE       CLOUDY    48  37  65 NW8       30.06S
FLAG ISLAND    CLOUDY    45  36  70 N6        30.06S
INTL FALLS     CLOUDY    46  36  68 N9        30.04R
6HR MIN TEMP:  42; 6HR MAX TEMP:  47;

WASKISH        CLOUDY    45  43  93 CALM      30.05F
BIG FORK       CLOUDY    46  39  76 N3        30.04S
LONGVILLE      PTSUNNY   52  39  62 NW7       30.03F
GRAND RAPIDS   CLOUDY    46  37  71 N12       30.03S
CRANE LAKE     CLOUDY    45  37  76 NW3       30.03S
ORR            CLOUDY    46  36  66 CALM      30.00S
COOK           CLOUDY    46  37  71 NW5       30.02S
WALKER         MOCLDY    50  39  65 N5        30.04S
$$
MNZ012-019>021-037-201900-
   Northeast Minnesota

CITY           SKY/WX    TMP DP  RH WIND       PRES   REMARKS
DULUTH         CLOUDY    49  40  71 NW12      29.99R
6HR MIN TEMP:  43; 6HR MAX TEMP:  49;

ELY            CLOUDY    46  37  71 NW8       29.99S
HIBBING        CLOUDY    49  37  63 N10       30.01R
EVELETH        PTSUNNY   45  37  76 NW10      30.01S
DULUTH HARBOR  CLOUDY    52  45  76 NW6       30.01R
TWO HARBORS    CLOUDY    54  30  40 NW5       29.96S
SILVER BAY     SUNNY     52  37  58 NW7       29.96R
GRAND MARAIS     N/A     51  41  68 VRB7      29.95R
G MARAIS ARPRT CLOUDY    45  37  76 N12       29.94S
$$
MNZ029>031-032-039>041-046>048-054>057-064-201900-
   West Central Minnesota

CITY           SKY/WX    TMP DP  RH WIND       PRES   REMARKS
FERGUS FALLS   SUNNY     61  39  44 N13       30.06F
WHEATON        SUNNY     61  43  51 NW7       30.07F
MORRIS         SUNNY     63  43  48 NW14      30.04F
ALEXANDRIA     SUNNY     60  41  49 NW10G18   30.05F
ELBOW LAKE     FAIR      58  42  53 NW10      30.05F
WADENA         SUNNY     57  41  54 NW6       30.03F
GLENWOOD       SUNNY     61  45  55 NW10      30.04F
APPLETON       SUNNY     64  39  39 NW10G17   30.04F
BENSON         SUNNY     63  43  48 N14       30.04F
ORTONVILLE     SUNNY     63  41  45 NW6       30.05F
MADISON        SUNNY     66  43  42 N7        30.05F
WILLMAR        FAIR      64  39  39 NW15G22   30.04F
$$
MNZ033>034-036-042>043-049>051-058-059-201900-
   Central Minnesota

CITY           SKY/WX    TMP DP  RH WIND       PRES   REMARKS
ST CLOUD       SUNNY     62  41  46 N16       30.01F
6HR MIN TEMP:  44; 6HR MAX TEMP:  63;

SAUK CENTRE    FAIR      59  41  51 NW12      30.03F
PAYNESVILLE    SUNNY     58  40  50 W14G20    30.03F
AITKIN         PTSUNNY   54  41  62 N9        30.01F
PINE RIVER     MOSUNNY   54  41  62 NW7       30.06S
BRAINERD       SUNNY     54  40  59 N13       30.03S
STAPLES        SUNNY     55  37  50 NW12      30.03S
LONG PRAIRIE   FAIR      57  41  54 NW14      30.03F
LITTLE FALLS   SUNNY     57  39  51 NW7       30.02F
LITCHFIELD     SUNNY     63  43  48 NW15G23   30.02F
BUFFALO        SUNNY     60  42  50 NW7       30.01F
MAPLE LAKE     SUNNY     61  45  56 NW9       30.02S
$$
MNZ037-044-045-052-053-201900-
   East Central Minnesota

CITY           SKY/WX    TMP DP  RH WIND       PRES   REMARKS
PRINCETON      SUNNY     61  43  51 NW10      30.01S
MORA           MOSUNNY   55  41  58 N9        30.02S
CAMBRIDGE      SUNNY     61  43  51 NW10      29.98S
RUSH CITY      MOSUNNY   56  42  59 NW7       30.00S
MOOSE LAKE     CLOUDY    50  39  66 N9        29.99S
HINCKLEY       MOCLDY    55  43  62 N6        30.00R
CLOQUET        CLOUDY    48  39  71 NW8       30.00S
MCGREGOR       CLOUDY    48  41  76 N10       30.03S
$$
MNZ071>073-080-081-089-090-097-098-201900-
   Southwest Minnesota

CITY           SKY/WX    TMP DP  RH WIND       PRES   REMARKS
MONTEVIDEO     SUNNY     66  43  42 N7        30.05F
GRANITE FALLS  SUNNY     64  41  43 NW10      30.06S
CANBY          SUNNY     65  42  42 NW9       30.06F
MARSHALL       SUNNY     64  39  39 NW12G18   30.04F
REDWOOD FALLS  SUNNY     65  40  39 NW12      30.03F
OLIVIA         SUNNY     63  41  45 NW15      30.02F
PIPESTONE      SUNNY     66  37  34 NW12      30.06F
WINDOM         SUNNY     64  39  39 N13       30.04F
WORTHINGTON    SUNNY     64  39  39 NW9G22    30.06F
JACKSON        SUNNY     66  36  32 N9G20     30.05F
TRACY          SUNNY     65  41  41 NW12      30.05F
SLAYTON        SUNNY     65  37  35 NW12      30.06F
$$
MNZ065>067-074>077-082>085-091>093-201900-
   South Central Minnesota

CITY           SKY/WX    TMP DP  RH WIND       PRES   REMARKS
MANKATO        SUNNY     63  39  42 NW14      30.00F
NEW ULM        SUNNY     64  43  45 NW15G21   30.01F
ST JAMES       SUNNY     64  39  39 NW10G22   30.03F
FAIRMONT       SUNNY     64  37  36 N16G22    30.02F
GLENCOE        SUNNY     63  45  52 NW12      30.00F
FARIBAULT      SUNNY     63  43  48 NW12G17   29.99F
OWATONNA       SUNNY     61  43  51 NW15      29.99F
WASECA         SUNNY     61  37  41 NW10G18   30.01F
ALBERT LEA     SUNNY     63  41  45 NW13G20   29.99F
$$
MNZ078>079-086>088-094>096-201900-
   Southeast Minnesota

CITY           SKY/WX    TMP DP  RH WIND       PRES   REMARKS
ROCHESTER      SUNNY     61  43  51 N15G23    29.98F
6HR MIN TEMP:  41; 6HR MAX TEMP:  61;

RED WING       SUNNY     63  41  45 NW13G20   29.96F
STANTON        SUNNY     62  44  51 NW13      29.97F
DODGE CENTER   SUNNY     61  45  55 N15       29.98F
WINONA         SUNNY     61  43  51 NW15G24   29.95F
AUSTIN         SUNNY     61  43  51 N10G20    29.98F
PRESTON        SUNNY     59  44  58 NW14      29.97F
$$
ABBREVIATIONS USED IN REMARKS
   TC - TEMPERATURES IN CELSIUS
  WCI - WIND CHILL INDEX
   HX - HEAT INDEX
  VSB - VISIBILITY
$$



USA.gov is the U.S. government's official web portal to all federal, state and local government web resources and services.